Regional Weather Roundup
Issued by NWS

Home | Current Version | Previous Version | Graphics & Text | Print | Product List | Glossary On
Versions: 1 2 3 4 5 6 7 8 9 10 11 12 13 14 15 16 17 18 19 20 21 22 23 24 25 26 27 28 29 30 31 32 33 34 35 36 37 38 39 40 41 42 43 44 45 46 47 48 49 50
000
ASUS43 KTOP 130308
RWRKS

WEATHER ROUNDUP FOR KANSAS
NATIONAL WEATHER SERVICE GOODLAND KS
1000 PM CDT SAT JUL 12 2014

NOTE:  "FAIR" INDICATES FEW OR NO CLOUDS BELOW 12,000 FEET WITH NO
SIGNIFICANT WEATHER AND/OR OBSTRUCTIONS TO VISIBILITY.

KSZ001>006-013>018-027>032-041>047-130400-
NORTHWEST KANSAS

CITY           SKY/WX    TMP DP  RH WIND       PRES   REMARKS
GOODLAND       MOCLDY    75  65  70 NE10      30.17R
HAYS           MOCLDY    79  68  69 N13       30.01R
HILL CITY      CLEAR     76  67  73 N9        30.06R
RUSSELL        MOCLDY    83  68  60 SW7       29.97R
$$

KSZ061>065-074>080-084>089-130400-
SOUTHWEST KANSAS

CITY           SKY/WX    TMP DP  RH WIND       PRES   REMARKS
DODGE CITY     MOCLDY    81  61  50 S6        30.03R
ELKHART          N/A    N/A N/A N/A MISG        N/A
GARDEN CITY    CLOUDY    79  64  60 N7        30.05R
GREAT BEND     CLOUDY    82  66  57 S8        29.97R
LIBERAL        CLEAR     82  57  42 S10       30.07R
PRATT          PTCLDY    81  61  50 S10       30.02R
$$

KSZ066>073-081>083-090>101-130400-
SOUTHEAST KANSAS

CITY           SKY/WX    TMP DP  RH WIND       PRES   REMARKS
CHANUTE        CLEAR     80  68  66 S8        30.02R
COFFEYVILLE    CLEAR     82  68  62 S9        30.01R
HUTCHINSON     CLEAR     81  66  60 SE5       29.98R
MEDICINE LODGE   N/A     83  63  50 S7        29.99R
NEWTON         CLEAR     81  63  54 S8        30.02S
PARSONS        CLEAR     81  68  64 S5        30.02R
WICHITA INTL   PTCLDY    79  64  60 S8        29.98R
WICHITA JABRA  CLEAR     79  66  64 S8        29.99R
WINFIELD       CLEAR     79  64  60 S9        30.01R
$$

KSZ007>012-019>026-033>040-048>060-102>105-130400-
NORTHEAST KANSAS

CITY           SKY/WX    TMP DP  RH WIND       PRES   REMARKS
CONCORDIA      MOCLDY    80  73  79 N12       29.99R
EMPORIA        CLEAR     80  67  64 S10       29.99R
LAWRENCE       CLEAR     84  69  60 S8        29.97R
MANHATTAN      CLEAR     84  67  56 S5        29.94R
MARYSVILLE     CLEAR     79  73  83 N8G17     29.99R
OLATHE IND     CLEAR     80  70  71 S7        30.00R
OLATHE EXE     CLEAR     81  70  69 S8        29.99R
SALINA         PTCLDY    82  66  58 S8        29.94S
TOPEKA BILLARD CLEAR     85  67  54 S5        29.96R
TOPEKA FORBES  CLEAR     83  68  60 S8        29.97R
$$



USA.gov is the U.S. government's official web portal to all federal, state and local government web resources and services.